User: anonymous   Login
Location: Unspecified
(48.5670°N, 0.0000°E)
Time: 04:19:55
(UTC+00:00)
Language:

Vanguard 1 - Orbit

View from above orbital plane
View from above orbital plane
View from above satellite
View from above satellite

Ground track
Ground track

The orbit data is extracted from the following two-line orbital elements,

1     5U 58002B   19232.89710366 +.00000016 +00000-0 +48053-4 0  9998
2     5 034.2447 077.1695 1841306 075.4313 304.2509 10.84763925172505
Epoch (UTC): 20 August 2019 21:31:49
Eccentricity: 0.1841306
inclination: 34.2447°
perigee height: 655 km
apogee height: 3829 km
right ascension of ascending node: 77.1695°
argument of perigee: 75.4313°
revolutions per day: 10.84763925
mean anomaly at epoch: 304.2509°
orbit number at epoch: 17250

The dashed part of the orbit path shows where the satellite is in the earth's shadow,  

DLR